Location: Kapla
(46.2483°N, 15.0094°E)
Time: 15:50:59
(UTC+00:00)

Cosmos 1869 Rocket - Pass Details

Date: 03 March 2021
Orbit: 605 x 633 km, 82.5° (Epoch: 18 April)

Event Time Altitude Azimuth Distance (km) Brightness Sun altitude
Rises 18:12:59 0° 166° (SSE) 2,858 6.8 -15.3°
Reaches altitude 10° 18:15:18 10° 158° (SSE) 1,963 5.8 -15.7°
Maximum altitude 18:19:17 37° 91° (E) 967 4.0 -16.4°
Drops below altitude 10° 18:23:21 10° 25° (NNE) 1,994 6.0 -17.0°
Sets 18:25:42 0° 17° (NNE) 2,910 6.9 -17.4°
